Iowa City, IA

6:11 PM CDT on October 23, 2017 (GMT -0500)
Iowa City Municipal

Weather History for KIOW - November, 2011

Change the Weather History Date:

Sunday, November 20, 2011

  Actual Average Record
Temperature  
Mean Temperature 36 °F 37 °F  
Max Temperature 39 °F 45 °F 72 °F (2003)
Min Temperature 32 °F 28 °F 9 °F (2014)
Degree Days  
Heating Degree Days 29 28  
Month to date heating degree days 447 470  
Since 1 July heating degree days 964 995  
Cooling Degree Days 0 0  
Month to date cooling degree days 0 0  
Year to date cooling degree days 1092 912  
Moisture  
Dew Point 28 °F    
Average Humidity 73    
Maximum Humidity 82    
Minimum Humidity 64    
Precipitation  
Precipitation 0.00 in 0.07 in 1.86 in (1992)
Month to date precipitation 2.61 1.64  
Year to date precipitation 31.89 34.05  
Sea Level Pressure  
Sea Level Pressure 30.28 in    
Wind  
Wind Speed 7 mph (North)    
Max Wind Speed 18 mph    
Max Gust Speed 26 mph    
Visibility 10 miles    
Events      
T = Trace of Precipitation, MM = Missing Value Source: NWS Daily Summary

Daily Weather History Graph

Daily Weather History Graph

Search for Another Location

Airport or City:

Trip Planner

Search our weather history database for the weather conditions in past years. The results will help you decide how hot, cold, wet, or windy it might be!

Date:

Astronomy

Nov. 20, 2011 Rise Set
Actual Time 7:00 AM CST 4:42 PM CST
Civil Twilight 6:30 AM CST 5:12 PM CST
Nautical Twilight 5:56 AM CST 5:46 PM CST
Astronomical Twilight 5:23 AM CST 6:19 PM CST
Moon 1:25 AM CST (11/20) 1:34 PM CST (11/20)
Length of Visible Light 10h 41m
Length of Day
9h 41m
Waning Crescent, 27% of the Moon is Illuminated
Nov 20
Waning Crescent
Nov 25
New
Dec 2
First Quarter
Dec 10
Full
Dec 17
Last Quarter

Hourly Weather History & Observations

Time (CST) Temp. Windchill Dew Point Humidity Pressure Visibility Wind Dir Wind Speed Gust Speed Precip Events Conditions
12:52 AM 34.0 °F 23.0 °F 27.0 °F 75% 30.12 in 10.0 mi NW 18.4 mph 23.0 mph N/A   Overcast
1:52 AM 34.0 °F 28.0 °F 27.0 °F 75% 30.15 in 10.0 mi NNW 6.9 mph - N/A   Overcast
2:52 AM 33.1 °F 23.9 °F 26.1 °F 75% 30.19 in 10.0 mi NNW 12.7 mph 19.6 mph N/A   Overcast
3:52 AM 33.1 °F 23.9 °F 26.1 °F 75% 30.20 in 10.0 mi NNW 12.7 mph 18.4 mph N/A   Overcast
4:52 AM 32.0 °F 22.5 °F 26.1 °F 79% 30.20 in 10.0 mi NNW 12.7 mph - N/A   Scattered Clouds
5:52 AM 32.0 °F 23.6 °F 26.1 °F 79% 30.21 in 10.0 mi NNW 10.4 mph - N/A   Clear
6:33 AM 32.0 °F 23.0 °F 26.6 °F 80% 30.22 in 10.0 mi North 11.5 mph - N/A   Mostly Cloudy
6:52 AM 32.0 °F 24.2 °F 26.1 °F 79% 30.24 in 10.0 mi North 9.2 mph - N/A   Overcast
7:52 AM 32.0 °F 23.6 °F 26.1 °F 79% 30.29 in 10.0 mi NNE 10.4 mph - N/A   Overcast
8:52 AM 33.1 °F 28.7 °F 27.0 °F 78% 30.32 in 10.0 mi NNW 4.6 mph - N/A   Scattered Clouds
8:59 AM 33.8 °F 29.6 °F 26.6 °F 75% 30.30 in 10.0 mi North 4.6 mph - N/A   Mostly Cloudy
9:52 AM 35.1 °F 30.1 °F 27.0 °F 72% 30.34 in 10.0 mi NNW 5.8 mph - N/A   Overcast
10:52 AM 35.1 °F 30.1 °F 27.0 °F 72% 30.33 in 10.0 mi North 5.8 mph - N/A   Overcast
11:52 AM 36.0 °F 29.6 °F 28.0 °F 73% 30.32 in 10.0 mi North 8.1 mph - N/A   Overcast
1:27 PM 37.4 °F 32.1 °F 28.4 °F 70% 30.29 in 10.0 mi NNW 6.9 mph - N/A   Mostly Cloudy
1:40 PM 37.4 °F 32.8 °F 28.4 °F 70% 30.30 in 10.0 mi NNE 5.8 mph - N/A   Mostly Cloudy
1:52 PM 37.9 °F 35.5 °F 28.9 °F 70% 30.32 in 10.0 mi NNW 3.5 mph - N/A   Overcast
2:45 PM 39.2 °F 35.9 °F 28.4 °F 65% 30.30 in 10.0 mi North 4.6 mph - N/A   Overcast
2:52 PM 39.0 °F 35.7 °F 28.9 °F 67% 30.32 in 10.0 mi North 4.6 mph - N/A   Overcast
3:52 PM 39.0 °F 31.8 °F 28.9 °F 67% 30.31 in 10.0 mi North 11.5 mph - N/A   Partly Cloudy
4:52 PM 37.0 °F 31.0 °F 28.0 °F 70% 30.30 in 10.0 mi NNE 8.1 mph - N/A   Clear
5:52 PM 37.0 °F 31.6 °F 28.9 °F 73% 30.31 in 10.0 mi NNE 6.9 mph - N/A   Scattered Clouds
6:52 PM 37.9 °F 33.5 °F 28.9 °F 70% 30.33 in 10.0 mi NNE 5.8 mph - N/A   Overcast
8:52 PM 36.0 °F 33.3 °F 28.9 °F 76% 30.33 in 10.0 mi NE 3.5 mph - N/A   Mostly Cloudy
9:52 PM 35.1 °F 30.1 °F 28.9 °F 78% 30.33 in 10.0 mi NNE 5.8 mph - N/A   Clear
10:32 PM 33.8 °F 30.8 °F 28.4 °F 81% 30.30 in 10.0 mi NE 3.5 mph - N/A   Mostly Cloudy
10:52 PM 33.1 °F 30.0 °F 28.0 °F 82% 30.32 in 10.0 mi NE 3.5 mph - N/A   Mostly Cloudy
11:52 PM 34.0 °F 31.0 °F 28.9 °F 82% 30.32 in 10.0 mi ENE 3.5 mph - N/A   Overcast